{"data":{"norad_id":41187,"intl_designator":"2015-081J","name":"ORBCOMM FM108","alt_names":[],"object_type":"PAYLOAD","status":"ACTIVE","operator":null,"country":"ORB","launch_date":"2015-12-22","launch_site_code":"AFETR","launch_vehicle":null,"mission":null,"orbit_class":"UNKNOWN","rcs_meters":0.5329,"size_class":null,"mass_kg":null,"dimensions":null,"purposes":["comms"],"wikipedia_slug":null,"has_3d_model":false,"image_url":null,"decayed_at":null,"tle_current":{"epoch":"2026-09-19T04:16:25.035456Z","epoch_age_seconds":132534,"freshness":"FRESH","line1":"1 41187U 15081J   26262.17806754  .00000256  00000+0  90285-4 0  9992","line2":"2 41187  47.0036  97.7680 0002579 268.6363  91.4227 14.58982303573808","mean_motion":14.58982303,"eccentricity":0.0002579,"inclination_deg":47.0036,"raan_deg":97.768,"arg_perigee_deg":268.6363,"mean_anomaly_deg":91.4227,"bstar":9.0285e-5,"rev_number":57380,"period_min":98.698935349595,"perigee_km":694.63741066507,"apogee_km":698.28648880334,"semimajor_km":7074.5989497342,"source":"CELESTRAK","updated_at":"2026-09-20T09:00:44.911664Z"}}}